This demonstration page uses our WeatherBlox Daily Observations layout. Learn more.

Left ArrowRight Arrow

Hourly Observations for January 3, 2017

Temp ( °F °C ) Dew Point ( °F °C ) Humidity (%) Winds ( mph kmh ) Pressure ( in mb ) Visibility ( mi km ) Precip ( " mm )
12:53 am 00:53 Cloudy 19 -7.2 10 -12.2 68 68 NNW 25 41 30.16 1021 10 16 0.00 0.00
1:19 am 01:19 Cloudy 18 -7.8 10 -12.2 71 71 NNW 22 35 30.27 1025 10 16 0.00 0.00
1:53 am 01:53 Partly Cloudy 17 -8.3 8 -13.3 68 68 NNW 25 41 30.20 1023 10 16 0.00 0.00
2:53 am 02:53 Clear 16 -8.9 6 -14.4 65 65 NNW 24 39 30.22 1023 10 16 0.00 0.00
3:53 am 03:53 Clear 15 -9.4 5 -15 64 64 NNW 24 39 30.22 1023 10 16 0.00 0.00
4:53 am 04:53 Clear 14 -10 4 -15.6 64 64 NNW 28 44 30.23 1024 10 16 0.00 0.00
5:53 am 05:53 Clear 13 -10.6 4 -15.6 67 67 NNW 21 33 30.24 1024 10 16 0.00 0.00
6:53 am 06:53 Clear 12 -11.1 4 -15.6 70 70 NNW 20 31 30.26 1025 10 16 0.00 0.00
7:53 am 07:53 Clear 11 -11.7 3 -16.1 70 70 NNW 20 31 30.31 1026 10 16 0.00 0.00
8:53 am 08:53 Mostly Cloudy 13 -10.6 3 -16.1 64 64 N 22 35 30.32 1027 10 16 0.00 0.00
9:53 am 09:53 Cloudy 14 -10 3 -16.1 61 61 N 28 44 30.37 1028 10 16 0.00 0.00
10:53 am 10:53 Cloudy 14 -10 3 -16.1 61 61 N 22 35 30.39 1029 10 16 0.00 0.00
11:53 am 11:53 Cloudy 15 -9.4 3 -16.1 59 59 N 21 33 30.37 1029 10 16 0.00 0.00
12:53 pm 12:53 Cloudy 17 -8.3 4 -15.6 56 56 N 20 31 30.38 1029 10 16 0.00 0.00
1:53 pm 13:53 Mostly Cloudy 18 -7.8 4 -15.6 54 54 N 21 33 30.38 1029 10 16 0.00 0.00
2:53 pm 14:53 Sunny 20 -6.7 5 -15 52 52 N 18 30 30.37 1029 10 16 0.00 0.00
3:53 pm 15:53 Sunny 21 -6.1 5 -15 50 50 N 17 28 30.39 1029 10 16 0.00 0.00
4:53 pm 16:53 Sunny 19 -7.2 4 -15.6 51 51 NNW 15 24 30.40 1029 10 16 0.00 0.00
5:53 pm 17:53 Clear 16 -8.9 4 -15.6 59 59 N 13 20 30.40 1030 10 16 0.00 0.00
6:53 pm 18:53 Clear 14 -10 4 -15.6 64 64 N 9 15 30.43 1031 10 16 0.00 0.00
7:53 pm 19:53 Clear 12 -11.1 3 -16.1 67 67 NNW 9 15 30.44 1031 10 16 0.00 0.00
8:53 pm 20:53 Clear 11 -11.7 3 -16.1 70 70 N 12 19 30.45 1031 10 16 0.00 0.00
9:53 pm 21:53 Clear 10 -12.2 2 -16.7 69 69 NNW 8 13 30.46 1032 10 16 0.00 0.00
10:53 pm 22:53 Clear 9 -12.8 0 -17.8 66 66 NNW 13 20 30.46 1031 10 16 0.00 0.00
11:53 pm 23:53 Clear 8 -13.3 0 -17.8 69 69 NNW 9 15 30.45 1031 10 16 0.00 0.00

Powered by AerisWeather